Gage Information Page
Francis E. Walter Reservoir, PA

Provisional Data Subject to Revision
Francis E. Walter Reservoir, PA
Amber Threshold Elevation:1392 feet
Red Threshold Elevation:1441 feet
Date (ET) Elevation (ft) Storage (ac-ft) Inflow (cfs) Outflow (cfs)
Mar 2, 2015   4:15 am 1299.09 1902 179 176
Mar 2, 2015   3:15 am 1299.09 1902 179 185
Mar 2, 2015   2:15 am 1299.09 1902 177 185
Mar 2, 2015   1:15 am 1299.10 1903 177 188
Mar 2, 2015 12:15 am 1299.11 1904 176 188
Mar 1, 2015 11:15 pm 1299.12 1905 176 192
Mar 1, 2015 10:15 pm 1299.13 1906 176 192
Mar 1, 2015   9:15 pm 1299.14 1907 176 192
Mar 1, 2015   8:15 pm 1299.15 1908 178 192
Mar 1, 2015   7:15 pm 1299.16 1909 182 192
Mar 1, 2015   6:15 pm 1299.18 1911 195 195
Mar 1, 2015   5:15 pm 1299.20 1913 220 198
Mar 1, 2015   4:15 pm 1299.22 1915 249 198
Mar 1, 2015   3:15 pm 1299.24 1917 279 202
Mar 1, 2015   2:15 pm 1299.26 1919 307 205
Mar 1, 2015   1:15 pm 1299.28 1921 333 205
Mar 1, 2015 12:15 pm 1299.29 1922 356 219
Mar 1, 2015 11:15 am 1299.31 1924 378 276
Mar 1, 2015 10:15 am 1299.33 1926 388 366
Mar 1, 2015   9:15 am 1299.34 1927 387 420
Mar 1, 2015   8:15 am 1299.35 1928 376 426
Mar 1, 2015   7:15 am 1299.36 1929 362 426
Mar 1, 2015   6:15 am 1299.37 1930 347 392
Mar 1, 2015   5:15 am 1299.37 1930 330 382
Report Generated Mar 02, 2015 05:24 AM

NWS Web Info
USGS Web Info